www.pogodaiklimat.ru

Погода и климат >> Архив погоды >> Канада >> Grand Etang


ПОГОДА в Grand Etang

  • Прогноз погоды в Grand Etang
  • Монитор погоды в Grand Etang
  • Климат города

АРХИВ ПОГОДЫ в Grand Etang

Время (UTC), дата Ветер
(напр.,м/с)
 
Видим.   Явления Облачность Т
(С)
Тd
(С)
f
(%)
Тe
(С)
Тes
(С)
Комфортность P
(гПа)
Po
(гПа)
Тmin
(С)
Tmax
(С)
R
(мм)
R24
(мм)
S
(см)
06 17.05 С 8 16 км ясно -12.2 -13.1 93 -22 -22 1016.4 1010.1 -16.4 -6.7 21
09 17.05 С 6 16 км ясно -13.6 -14.9 90 -23 -22 1016.6 1010.3
12 17.05 С 6 16 км ясно -13.4 -14.7 90 -23 -20 1017.0 1010.7 -14.2 -6.7
15 17.05 ЮЗ 2 14 км ясно -10.4 -12.4 85 -14 +4 1016.7 1010.4
18 17.05 З 2 16 км 3/0
[]
-8.5 -10.4 86 -13 -1 1016.0 1009.7 -14.2 -8.5
21 17.05 З 3 16 км ясно -6.3 -8.4 85 -12 -9 1015.7 1009.4
00 18.05 З 2 16 км ясно -5.6 -7.7 85 -10 -10 1014.9 1008.7 -14.2 -5.5
03 18.05 З 2 16 км 10/0 2000 м
[]
-6.4 -7.6 91 -10 -10 1014.5 1008.3
06 18.05 З 2 16 км 10/10 1500 м
[]
-7.0 -7.8 94 -11 -11 1013.9 1007.7 -14.2 -5.5
09 18.05 ЮЗ 3 16 км 10/0 2000 м
[]
-7.5 -8.0 96 -13 -13 1013.1 1006.9
12 18.05 ЮЗ 3 16 км 3/0
[]
-6.5 -7.6 92 -12 -7 1013.1 1006.9 -7.9 -5.5
15 18.05 ЮЗ 3 9000 м дымка 5/5 1500 м
[]
-5.3 -6.7 90 -10 -3 1012.7 1006.5
18 18.05 ЮЗ 4 16 км ясно -3.6 -5.3 88 -10 -0 1012.4 1006.2 -8.5 -3.5
21 18.05 ЮЗ 3 16 км 3/0
[]
-2.0 -3.7 88 -7 -4 1012.6 1006.4
00 19.05 ЮЗ 5 16 км 10/0 2000 м
[]
-1.2 -2.2 93 -8 -8 1012.3 1006.1 -7.9 -1.2
03 19.05 ЮЗ 6 16 км 10/0 2000 м
[]
-2.2 -2.6 97 -10 -10 1010.9 1004.7
06 19.05 ЮЗ 7 16 км 10/0
[]
-3.3 -3.7 97 -11 -11 1009.7 1003.6 -7.9 -1.2
09 19.05 ЮЗ 6 16 км 10/0 2000 м
[]
-3.6 -3.9 98 -11 -11 1007.8 1001.7
12 19.05 ЮЗ 6 16 км 5/0
[]
-2.7 -3.7 93 -10 -8 1006.3 1000.2 -4.1 -1.2
15 19.05 З 6 16 км 10/10 100 м
[]
-1.8 -2.9 92 -9 -9 1005.0 998.9
18 19.05 С 7 8000 м дымка 10/10 100 м
[]
-1.7 -2.7 93 -9 -9 1006.2 1000.1 -4.1 -1.7
21 19.05 С 10 16 км 10/10 100 м
[]
-0.6 -1.6 93 -9 -9 1008.3 1002.2
00 20.05 СВ 8 16 км 10/10 200 м
[]
-0.1 -0.9 94 -8 -8 1011.1 1005.0 -4.1 +0.1
03 20.05 СВ 7 16 км 10/10 200 м
[]
-0.9 -1.3 97 -9 -9 1013.3 1007.2
06 20.05 СВ 7 4800 м слаб. снег 10/10 200 м
[]
-3.0 -3.3 98 -11 -11 1015.5 1009.3 -4.1 +0.1 23
09 20.05 СВ 5 9000 м слаб. снег 10/10 300 м
[]
-4.1 -4.5 97 -11 -11 1017.7 1011.5
12 20.05 СВ 7 16 км 10/10 100 м
[]
-4.9 -5.4 96 -13 -13 1019.7 1013.5 -4.9 +0.1
15 20.05 СВ 7 2800 м дымка 10/10 100 м
[]
-5.5 -5.9 97 -14 -14 1021.9 1015.7
18 20.05 В 6 16 км 10/10 100 м
[]
-6.1 -6.6 96 -14 -14 1023.7 1017.5 -6.7 -3.0
21 20.05 СВ 4 16 км 10/10 200 м
[]
-4.6 -6.3 88 -11 -11 1025.3 1019.1
00 21.05 В 4 16 км 10/10 100 м
[]
-4.3 -5.2 93 -11 -11 1026.8 1020.5 -6.7 -3.9
03 21.05 СВ 3 16 км 9/9 300 м
[]
-6.5 -7.5 93 -12 -12 1028.1 1021.8
06 21.05 С 1 8000 м дымка 10/10 100 м
[]
-5.7 -5.8 99 -8 -8 1028.9 1022.6 -7.3 -3.0 7
09 21.05 С 3 16 км 10/10 300 м
[]
-5.8 -6.2 97 -11 -11 1030.1 1023.8
12 21.05 СВ 3 16 км 10/10 300 м
[]
-4.6 -4.9 98 -10 -10 1030.9 1024.6 -7.3 -3.0
15 21.05 В 2 16 км 10/10 300 м
[]
-2.1 -2.4 98 -6 -6 1030.9 1024.6
18 21.05 ЮВ 4 16 км 10/10 600 м
[]
+0.3 -0.9 92 -5 -5 1031.0 1024.7 -7.3 +0.4
21 21.05 Ю 6 16 км 10/10 600 м
[]
+1.0 -0.3 91 -6 -6 1030.6 1024.3
00 22.05 Ю 7 16 км 3/0
[]
+1.2 +0.1 92 -6 -6 1029.4 1023.2 -6.5 +1.4
03 22.05 Ю 8 16 км ясно -0.3 -1.0 95 -8 -8 1028.3 1022.1
06 22.05 Ю 10 16 км 10/10 100 м
[]
-0.2 -0.3 99 -9 -9 1027.3 1021.1 -6.5 +1.4 6
09 22.05 Ю 9 100 м переохл. туман н/о -0.9 -0.9 100 -9 -9 1026.5 1020.3
12 22.05 ЮЗ 11 100 м переохл. туман н/о -1.6 -1.6 100 -11 -11 1025.5 1019.3 -1.6 +1.4
15 22.05 ЮЗ 12 16 км 10/10 50 м
[]
-0.8 -1.1 98 -10 -10 1023.8 1017.6
18 22.05 ЮЗ 10 16 км 10/10 100 м
[]
+0.4 -0.5 94 -8 -8 1022.3 1016.1 -1.7 +0.4
21 22.05 ЮЗ 11 16 км 10/10 200 м
[]
+0.7 -0.5 92 -8 -8 1021.0 1014.8
00 23.05 Ю 12 16 км 10/10 200 м
[]
+0.4 -0.6 93 -8 -8 1019.5 1013.3 -1.7 +0.9
03 23.05 Ю 10 16 км 10/10 200 м
[]
0.0 -0.7 95 -8 -8 1017.2 1011.0
06 23.05 Ю 10 16 км 10/10 200 м
[]
-0.3 -0.9 96 -9 -9 1014.9 1008.8 -1.7 +0.9 17
09 23.05 Ю 10 16 км 10/10 100 м
[]
-0.2 -0.5 98 -9 -9 1012.6 1006.5
12 23.05 Ю 10 16 км 10/10 200 м
[]
-0.1 -0.8 95 -8 -8 1010.2 1004.1 -0.3 +0.9
15 23.05 Ю 8 16 км 9/0
[]
+0.6 -0.9 90 -7 -5 1008.3 1002.2
18 23.05 ЮВ 7 16 км 10/0
[]
+1.0 -0.2 92 -6 -3 1005.8 999.7 -0.3 +1.1
21 23.05 ЮВ 7 16 км 10/10 1500 м
[]
+1.1 -0.0 92 -6 -6 1004.3 998.2
00 24.05 ЮВ 7 16 км 10/10 600 м
[]
+0.9 +0.6 98 -6 -6 1003.1 997.0 -0.3 +1.2
03 24.05 ЮВ 7 16 км 10/10 300 м
[]
+1.0 +0.4 96 -6 -6 1002.0 996.0

 

Местоположение метеостанции Grand Etang (Канада): широта 46.55 долгота -61.05 высота над уровнем моря 13 м.

В архиве по умолчанию представлена погода в Grand Etang за последнюю неделю. Архивные данные за месяц целиком и за предыдущие месяцы, начиная с января 2011 года, Вы можете получить, выбрав интересующий диапазон дат из раскрывающегося списка и нажав кнопку "Ввод!".

Внимание! Время в таблицах - всемирное. Для получения местного времени необходимо прибавить поправку, которая в Grand Etang равна -4 ч.

Смотрите также архив погоды в соседних городах и на ближайших метеорологических станциях:

Погода в Cheticamp (Канада) (13 км)
Погода в North Mountain (Канада) (42 км)
Погода в Ingonish Beach (Канада) (51 км)
Погода в East Point (Канада) (71 км)
Погода в Sydney (Канада) (88 км)
Погода в Sydney Rcs (Канада) (88 км)
Погода в St Paul Island (Канада) (103 км)
Погода в Port Hawkesbury (Канада) (103 км)
Погода в Lles de la Madelein (Канада) (111 км)
Погода в Lles de la Madelein (Канада) (111 км)

Пояснения к столбцам:

Ветер - указаны скорость ветра в м/с - средняя за 10 мин, порывы в срок и между сроками (в фигурных скобках) и направление, откуда дует ветер: С - северный, СВ - северо-восточный, В - восточный, ЮВ - юго-восточный, Ю - южный, ЮЗ - юго-западный, З - западный, СЗ - северо-западный.
Видимость - горизонтальная дальность видимости в метрах или километрах. При видимости от 1 до 10 км при отсутствии осадков обычно наблюдается дымка, при ухудшении видимости до 1 км и менее - туман. В сухую погоду видимость может ухудшаться дымом, пылью или мглою.
Явления - указаны атмосферные явления, наблюдавшиеся в срок или в последний час перед сроком; фигурными скобками обозначены явления, наблюдавшиеся между сроками (за 1-3 часа до срока); квадратными скобками обозначены град или гололедные отложения с указанием их диаметра в мм.
Облачность - указаны через наклонную черту общая и нижняя облачность в баллах и высота нижней границы облаков в метрах; квадратными скобками обозначены формы облаков: Ci - перистые, Cs - перисто-слоистые, Cc - перисто-кучевые, Ac - высококучевые, As - высокослоистые, Sc - слоисто-кучевые, Ns - слоисто-дождевые, Cu - кучевые, Cb - кучево-дождевые. Подробнее классификацию облаков см. в Атласе облаков (PDF).
T - Температура воздуха - температура, измеренная на высоте 2 м над землей.
Td - Температура точки росы - температура, при понижении до которой содержащийся в воздухе водяной пар достигнет насыщения.
f - Относительная влажность воздуха - влажноcть воздуха, измеренная на высоте 2 м над землей.
Te - Эффективная температура - температура, которую ощущает одетый по сезону человек в тени. Характеристика душности погоды. При расчете учитывается влияние влажности воздуха и скорости ветра на теплоощущения человека.
Tes - Эффективная температура на солнце - температура, которую ощущает человек, с поправкой на солнечный нагрев. Характеристика знойности погоды. Зависит от высоты солнца над горизонтом, облачности и скорости ветра. Ночью, в пасмурную погоду, а также при ветре 12 м/с и более поправка равна нулю.
P - Атмосферное давление - приведенное к уровню моря атмосферное давление.
Po - Атмосферное давление - измеренное на уровне метеостанции атмосферное давление.
Tmin - Минимальная температура - минимум температуры воздуха на высоте 2 м над землей.
Tmax - Максимальная температура - максимум температуры воздуха на высоте 2 м над землей.
R - Количество осадков - Количество выпавших осадков за период времени, мм. При наведении курсора мыши на число - период времени, за который выпало указанное количество осадков.
R24 - Количество осадков - Количество выпавших осадков за 24 часа, мм.
S - Снежный покров - Высота снежного покрова, см. При наведении курсора мыши на число - состояние снежного покрова и степень покрытия местности в баллах.